Theta_e
328 330 331 340 347 347 348 348 349 349 350 350 349 350 349 350 349 350 349 349 349 349 350 350 350 350 350 350 350 350 350 350 349 349 349 349 349 349 349 350 350 350 349 349 349 349 350 350 350 349 349 349 351 350 349 349 349 348 348 348 348 348 347 346 346 346 346 348 348 349 350 353 355 353 353 354 353 353 353 353 351 347 346 349 353
328 330 331 331 346 346 347 348 348 348 348 349 349 349 350 349 349 349 349 349 349 349 349 349 349 349 349 349 350 349 349 349 349 349 348 348 348 348 348 348 349 349 348 349 349 349 349 350 350 350 350 350 349 349 349 349 348 348 348 348 347 348 345 345 345 344 345 345 345 345 345 348 353 354 354 355 354 353 352 352 351 346 344 353 353
329 328 330 333 344 346 347 347 347 347 347 348 348 348 349 348 348 349 349 349 348 348 348 348 348 349 348 349 349 349 348 349 348 347 347 347 348 347 348 348 347 348 348 348 348 348 348 349 349 348 348 349 349 349 348 348 348 348 348 348 347 346 344 342 342 343 345 344 344 342 341 342 345 353 352 354 353 353 352 352 352 351 349 353 352
327 328 330 336 341 344 346 346 346 346 347 347 347 348 348 348 348 348 348 348 347 347 348 347 348 347 348 348 348 347 347 347 347 346 347 346 346 346 347 347 347 347 347 348 348 348 348 348 348 347 346 347 347 347 347 346 346 346 346 344 342 340 340 339 339 342 343 342 342 339 338 335 336 347 351 351 353 353 352 351 351 351 351 350 350
328 327 329 332 334 341 344 346 346 346 346 347 348 347 347 347 347 347 347 346 347 347 347 347 347 346 346 346 346 346 346 346 345 345 345 344 344 344 345 346 346 347 347 347 347 348 347 347 346 345 343 342 342 342 342 341 341 340 339 338 336 335 335 334 335 339 340 339 339 337 333 334 334 341 350 350 350 351 350 350 350 349 349 349 350
326 326 328 329 329 335 342 344 344 345 346 346 346 346 346 347 346 346 346 346 346 346 346 346 346 345 345 344 344 344 344 343 343 343 343 342 342 342 343 344 345 345 346 345 346 346 344 342 341 340 338 337 337 337 337 336 336 335 334 334 333 331 330 329 329 332 335 335 335 333 332 333 334 337 349 348 349 348 349 348 349 349 349 350 350
325 324 327 327 328 332 341 342 342 343 343 343 343 343 344 343 344 345 344 345 345 344 344 344 343 343 343 342 342 342 342 342 342 341 340 340 340 341 341 341 343 343 343 342 341 341 340 338 337 336 335 333 333 333 334 334 333 333 332 332 331 329 328 325 323 326 328 327 328 330 331 332 334 334 347 349 350 348 348 348 349 350 349 349 349
323 324 325 326 326 333 339 341 341 342 343 342 342 342 341 342 342 342 342 342 342 342 342 341 342 341 341 340 339 339 340 339 339 338 337 337 338 337 337 338 339 339 339 340 339 337 336 336 334 333 333 331 330 331 331 331 331 330 329 329 328 327 326 325 325 321 320 317 321 325 327 331 332 333 343 348 349 348 348 348 348 349 349 348 348
323 323 324 324 324 334 338 340 340 341 341 341 341 340 340 339 339 338 341 339 339 339 338 338 337 337 337 337 338 337 338 338 336 334 334 334 334 334 335 335 336 336 336 336 336 334 333 332 331 331 330 329 329 329 329 328 327 327 326 326 326 325 325 325 322 317 310 311 312 317 320 326 328 329 339 347 348 346 346 348 349 349 349 348 348
321 321 322 322 323 334 337 339 339 339 340 340 340 339 339 338 337 337 337 336 336 337 337 336 335 335 335 335 335 335 334 333 333 333 332 332 333 332 333 333 333 333 333 333 332 331 330 329 328 328 328 327 327 326 326 325 325 325 325 325 326 324 324 322 318 313 308 308 308 312 316 328 324 327 338 348 347 346 347 344 346 347 347 347 348
320 320 320 321 320 333 337 337 337 337 339 339 338 337 338 337 336 336 335 335 335 335 334 335 335 335 335 335 335 334 334 333 332 332 331 331 331 330 330 330 330 330 330 330 329 328 327 326 326 326 327 326 325 325 324 324 323 324 324 324 322 321 321 319 313 307 307 307 308 311 315 325 322 325 343 345 346 346 345 344 344 346 346 345 346
319 318 318 318 326 333 336 337 336 336 337 337 336 336 336 336 336 336 335 335 335 335 335 335 335 335 335 335 335 334 333 331 330 330 329 328 328 327 327 327 327 327 327 327 327 326 326 326 325 326 326 325 324 323 323 322 322 322 322 321 320 319 319 316 307 305 305 306 309 313 312 316 319 328 343 344 345 345 344 344 344 344 344 344 344
317 318 318 318 319 332 335 336 336 335 335 335 336 336 335 335 336 336 336 336 336 336 335 335 334 334 334 334 332 331 330 329 329 328 327 327 326 325 325 326 326 326 325 326 326 326 326 326 326 326 325 324 322 322 321 321 321 320 319 319 318 317 314 313 304 303 305 306 309 310 310 314 318 333 338 343 344 345 345 345 344 344 344 344 343
316 317 317 319 320 328 332 333 335 335 334 335 334 334 334 335 335 336 336 335 335 334 334 334 333 333 332 331 330 329 328 327 327 326 325 326 325 325 324 324 324 324 324 324 325 325 326 327 326 325 323 322 322 321 321 320 319 318 317 317 316 315 311 307 307 302 305 305 308 308 307 313 319 331 334 338 343 343 342 341 342 342 343 343 343
316 315 316 317 320 321 327 331 333 333 334 334 333 333 333 334 334 334 334 333 333 333 333 332 331 331 330 330 329 328 327 326 325 325 324 324 325 325 324 324 324 325 324 325 325 324 324 324 324 323 322 321 321 320 319 318 317 316 316 315 314 313 310 300 302 301 303 307 305 306 306 311 326 330 332 334 336 336 335 335 337 338 339 339 340
315 314 313 315 316 317 321 326 330 330 333 333 333 333 332 333 333 333 333 332 332 332 331 330 329 330 329 329 328 327 327 326 324 323 323 323 323 324 324 324 324 324 324 324 324 323 322 322 321 320 320 320 319 319 317 317 316 315 314 313 312 312 309 304 299 299 300 303 303 306 306 312 325 328 330 332 332 332 332 332 332 333 334 334 334
313 313 314 313 313 315 317 320 324 327 328 329 330 331 332 332 331 332 332 332 330 329 329 329 328 328 328 327 326 325 324 324 323 323 323 323 323 323 322 323 324 323 324 324 323 321 321 320 318 318 318 318 318 318 317 316 315 313 312 311 311 310 308 304 298 298 300 305 303 304 306 313 322 327 328 330 330 331 331 331 331 330 331 331 331
310 311 314 313 313 313 316 316 318 321 320 325 326 329 330 330 330 330 330 329 329 328 328 328 327 327 326 325 323 322 322 322 322 322 322 322 322 322 322 323 323 323 322 322 320 319 318 317 316 316 316 316 316 315 315 314 313 311 310 310 309 309 307 304 297 298 299 305 300 305 307 319 322 325 327 328 329 329 328 329 328 328 329 329 329
307 309 311 311 312 311 313 313 314 314 315 317 318 323 326 328 329 329 328 327 327 327 327 326 325 324 323 320 320 321 321 321 321 320 320 320 320 320 320 321 322 321 320 319 319 318 317 315 315 314 313 313 314 314 313 311 310 309 309 308 306 305 304 300 297 297 299 299 301 299 307 318 321 324 326 327 327 326 326 326 326 326 327 327 327
306 308 309 310 311 310 310 311 311 311 312 312 314 316 322 323 325 326 326 326 326 326 326 325 322 321 320 319 316 312 314 315 317 314 317 318 318 317 319 319 320 319 319 318 317 316 316 315 314 312 310 310 310 311 310 309 308 308 307 306 304 302 296 295 295 297 296 299 302 298 312 316 320 323 324 325 325 324 324 324 325 325 325 326 326
306 306 308 309 308 309 309 309 308 309 309 310 312 313 317 321 321 322 323 325 325 324 324 320 317 316 313 311 308 302 303 306 306 306 311 308 314 315 317 318 318 317 317 316 315 315 314 313 312 310 309 307 305 305 306 307 307 306 305 302 300 294 295 295 295 296 296 297 299 300 312 314 317 321 323 323 323 323 323 323 324 324 325 325 325
305 305 305 307 307 308 308 308 307 306 307 309 310 311 313 317 312 314 315 319 319 318 313 308 310 305 309 304 299 300 298 299 302 308 305 307 309 313 314 315 316 315 315 315 313 313 312 311 310 309 307 305 301 293 294 300 303 303 301 299 293 293 294 294 294 294 295 296 298 305 310 313 315 319 322 322 322 322 322 323 323 324 324 325 325
303 304 305 305 307 307 307 307 307 305 305 306 307 308 309 308 307 308 310 313 312 308 305 304 299 299 298 297 298 297 297 299 300 302 303 308 307 310 311 312 313 312 313 313 312 311 310 309 308 306 304 301 292 291 291 291 292 297 296 293 291 292 293 293 293 293 293 297 294 306 309 311 314 317 320 321 321 321 321 322 323 323 324 324 325
305 305 306 305 305 306 306 307 306 304 305 305 305 306 305 305 305 305 306 306 304 303 301 298 297 296 296 296 295 296 297 298 308 308 307 302 306 309 308 307 306 305 304 302 306 306 307 306 304 302 299 295 291 291 291 290 291 291 291 290 290 291 291 292 291 291 292 295 295 305 307 310 313 315 317 319 320 320 321 322 322 323 324 324 324
304 303 301 303 303 305 305 305 304 303 303 304 304 304 303 303 302 301 301 300 300 299 298 297 297 296 295 295 295 296 296 298 296 295 293 293 292 292 292 291 292 293 297 290 291 294 292 290 291 294 290 292 290 290 291 290 290 290 290 290 290 290 290 291 290 290 291 291 295 303 304 307 311 313 315 318 319 319 320 321 322 323 323 323 324
297 299 301 302 302 304 304 305 303 302 303 303 303 304 302 301 300 299 298 298 298 297 296 296 296 296 295 295 296 295 295 294 292 292 291 291 290 290 290 290 290 291 293 289 289 290 289 289 290 291 290 290 290 290 291 291 289 289 289 289 289 289 289 289 289 289 290 290 293 300 303 305 308 311 313 316 317 318 320 320 321 322 322 322 322
297 300 301 300 301 302 302 303 302 301 301 301 301 301 300 300 299 298 297 296 296 296 296 295 295 295 295 296 295 293 293 291 291 291 290 290 290 289 289 289 289 289 291 289 289 289 289 289 289 289 289 289 289 289 289 289 288 288 288 288 289 289 289 289 288 288 289 290 294 298 301 303 306 309 311 313 316 317 318 318 320 321 320 321 321
296 298 298 299 299 300 301 301 302 300 300 299 300 299 299 297 297 299 297 297 296 296 295 295 295 295 295 295 295 293 292 291 291 291 290 290 290 289 289 288 288 289 290 289 289 288 288 288 288 287 288 288 289 288 288 288 288 287 288 288 288 288 288 288 288 288 288 289 290 295 300 302 304 306 309 312 314 316 317 317 319 319 319 320 321
297 297 297 297 298 299 299 300 300 300 299 298 298 298 297 296 296 296 296 299 296 296 296 295 294 295 295 295 294 292 291 291 291 291 289 290 289 289 288 288 289 289 289 288 289 288 288 288 288 287 287 288 288 288 288 287 287 288 288 287 287 287 287 288 288 288 288 288 288 292 298 300 303 305 307 310 313 314 316 316 317 317 318 319 319
298 298 297 297 298 298 298 298 300 300 298 297 297 296 296 295 295 296 295 298 295 295 295 294 294 294 294 294 294 293 292 291 291 290 290 289 288 288 288 288 288 288 288 289 288 287 287 287 287 287 288 287 288 290 287 287 287 287 287 287 287 287 287 287 287 287 288 288 288 290 295 298 301 304 305 307 311 312 314 315 315 317 317 318 318
298 297 297 297 298 297 297 298 298 299 297 296 296 296 296 295 295 295 295 296 295 295 295 294 293 294 294 294 293 293 292 291 291 290 289 289 288 288 287 287 287 287 288 288 288 288 287 287 288 287 287 287 287 287 287 286 286 286 287 287 287 287 287 287 287 287 287 287 287 288 290 295 298 301 303 306 308 310 311 312 314 315 315 316 317
297 298 298 297 296 297 297 297 297 298 298 296 295 294 295 294 294 294 294 295 295 294 294 294 294 293 293 293 292 292 293 290 290 290 289 289 288 287 287 287 287 287 288 288 288 288 288 288 287 287 287 287 287 287 287 285 285 286 286 286 286 286 286 286 286 287 287 287 287 287 288 291 295 298 300 303 306 308 309 310 312 313 314 314 315
299 299 298 296 296 296 297 297 297 298 298 296 295 294 294 294 293 294 294 296 294 294 294 293 293 292 293 293 292 292 293 291 290 290 291 288 288 287 286 288 287 288 288 287 288 287 288 287 288 288 286 286 286 286 287 285 285 285 285 286 286 286 286 286 286 287 287 287 286 286 287 289 289 294 297 300 303 306 309 309 310 311 312 313 313
299 299 296 296 297 297 298 297 297 297 298 297 296 294 294 294 294 294 294 295 294 293 294 293 293 292 292 292 292 292 292 291 290 289 289 288 287 287 286 286 286 287 288 287 286 286 286 286 287 288 290 286 285 285 284 285 285 284 284 285 285 285 286 286 286 286 286 286 286 286 287 287 287 289 291 297 299 302 306 308 308 307 308 308 308
299 297 297 297 297 296 297 297 297 297 298 297 297 295 295 295 294 294 294 295 294 293 293 292 292 292 292 292 291 292 291 291 290 289 288 288 287 287 286 286 287 287 286 286 286 286 286 286 286 285 284 284 284 286 284 284 284 285 285 286 285 286 285 285 285 285 285 285 286 286 287 287 288 289 291 290 294 298 303 305 306 305 306 306 307
299 299 298 297 296 296 297 296 297 296 297 298 297 296 295 295 294 295 294 294 294 293 292 292 292 291 291 291 291 292 291 290 290 289 288 288 287 287 286 286 287 287 286 285 286 286 286 286 285 284 283 284 284 283 284 284 284 285 285 285 285 286 285 284 285 285 286 286 286 286 286 287 288 289 294 290 291 293 300 302 303 303 303 304 305
300 299 298 296 296 295 296 296 296 296 296 297 297 295 294 294 294 294 294 294 294 293 292 291 291 291 291 291 291 291 291 290 290 289 288 288 287 287 286 286 287 286 285 285 285 286 286 286 285 285 283 283 283 283 283 284 284 284 284 283 284 285 284 284 285 285 287 285 285 285 286 287 289 292 288 289 290 291 295 299 299 300 300 302 303
299 299 298 297 296 296 296 296 296 296 296 296 296 295 294 294 294 293 294 294 293 293 292 291 291 291 290 290 291 291 290 290 289 289 288 288 287 287 286 286 286 285 285 285 285 285 285 285 284 283 283 283 283 283 283 283 284 284 283 283 283 283 283 284 285 289 284 284 284 285 287 286 286 287 288 289 289 289 289 292 296 295 296 299 302
298 298 298 297 296 295 295 296 296 296 296 296 295 294 293 292 291 292 292 292 292 290 291 291 291 290 290 290 290 291 290 289 289 288 288 288 287 286 286 285 286 285 285 285 284 285 285 283 284 283 283 284 283 283 283 284 283 283 283 283 283 282 283 285 285 284 284 284 286 288 286 284 285 285 286 287 286 286 286 287 286 286 288 296 300
298 298 298 296 295 295 295 295 295 295 295 295 294 292 292 292 291 289 290 291 291 290 290 291 291 290 290 290 290 290 290 289 288 288 288 287 286 286 285 285 285 285 284 284 284 284 283 283 283 284 284 284 283 282 282 282 282 281 283 282 282 282 282 285 283 283 284 283 283 284 283 285 283 284 284 285 285 285 286 286 287 286 287 291 297
296 296 297 296 295 295 294 294 295 295 295 294 293 292 291 290 290 291 291 292 291 291 290 291 291 291 290 290 290 290 289 289 288 287 287 288 286 285 285 285 285 285 284 285 285 284 283 283 285 284 282 281 282 281 282 281 280 279 279 280 281 282 285 284 282 282 283 283 283 282 283 283 283 284 284 284 284 285 286 286 286 286 287 286 289
295 295 296 296 295 294 294 294 294 294 295 294 293 293 293 292 292 292 292 292 291 291 290 290 291 291 290 289 290 289 289 288 288 287 287 287 286 285 285 285 285 284 284 284 283 285 284 283 284 281 281 281 280 281 282 279 279 278 278 279 279 281 284 281 282 282 282 283 283 282 283 283 283 283 284 284 284 284 285 285 285 286 286 287 287
296 295 296 295 294 293 294 294 294 294 294 294 294 293 293 293 293 292 293 291 291 291 290 290 290 289 289 289 289 289 289 288 288 288 287 287 286 286 285 285 284 285 284 283 284 283 283 283 282 282 281 281 282 283 281 279 278 279 279 278 276 277 281 279 279 281 282 283 282 281 283 283 283 282 283 284 283 284 285 285 284 285 286 286 286
293 292 293 294 293 293 293 293 293 294 294 294 294 294 293 292 290 289 289 289 288 289 288 288 288 288 288 288 289 289 289 288 288 287 287 287 286 286 285 284 284 285 284 284 283 283 282 282 281 282 282 280 278 280 282 280 279 278 277 277 276 277 277 276 277 280 280 281 281 281 282 282 281 282 283 283 283 284 284 284 284 284 285 286 285
293 293 293 293 294 293 293 293 293 293 294 294 294 293 291 289 288 288 288 287 287 287 286 285 288 289 289 287 288 288 288 288 287 287 287 286 285 285 285 284 284 284 284 283 283 283 283 283 282 282 280 280 279 278 281 281 280 281 278 277 276 277 276 276 277 277 278 279 280 281 284 282 280 283 281 281 282 282 283 282 283 283 284 284 283
292 293 294 294 293 293 293 293 293 293 293 293 293 292 292 290 289 288 287 287 286 286 287 288 287 287 289 289 288 288 288 287 287 287 287 286 285 285 284 284 284 284 284 283 283 282 282 282 282 282 280 280 280 279 279 282 281 282 279 277 278 276 275 276 276 275 277 279 279 280 281 280 280 280 281 280 281 281 282 282 282 283 283 282 283
292 291 291 291 291 292 292 292 292 292 293 292 292 292 291 290 290 290 290 289 289 289 290 289 289 288 289 288 288 287 287 287 286 286 286 286 285 284 284 284 284 284 284 282 282 282 282 282 282 281 281 282 281 278 279 279 279 279 279 279 281 280 278 276 274 276 274 276 277 278 278 279 279 280 280 280 280 280 280 281 281 281 281 281 282
290 288 290 290 289 290 291 291 292 292 292 292 292 292 291 290 290 290 290 290 290 290 289 289 289 288 288 288 287 287 287 287 286 286 286 285 285 284 284 283 283 283 283 282 282 281 282 282 282 281 281 282 280 280 279 279 279 279 280 279 279 278 277 277 277 276 275 273 275 277 278 278 278 279 280 279 279 279 279 280 280 281 280 281 281
288 289 290 290 290 289 290 290 291 291 291 291 292 291 292 291 291 290 290 291 290 289 288 288 288 288 287 287 287 286 286 286 286 285 285 285 285 284 283 283 283 283 284 282 281 282 282 282 281 281 281 281 280 280 280 279 278 279 279 277 278 277 277 276 277 277 276 274 274 275 275 277 278 280 279 278 279 279 280 280 280 282 282 282 281
287 288 287 287 288 288 288 288 289 290 290 290 291 291 291 291 290 290 290 290 289 286 287 286 286 286 287 286 286 286 286 286 285 285 285 285 285 284 283 283 283 283 283 282 281 281 281 282 282 281 281 281 280 280 280 279 279 279 279 279 277 276 276 276 276 276 276 276 275 274 275 275 275 276 278 279 278 279 279 280 280 280 280 280 280
284 286 286 287 287 287 288 288 288 289 289 290 290 290 290 290 290 290 290 289 288 286 285 285 286 285 286 286 286 286 286 286 285 285 285 284 284 284 283 283 283 283 283 281 281 282 282 282 281 281 281 281 280 280 282 279 279 279 278 279 278 278 277 275 276 275 275 275 274 275 275 276 275 275 276 278 280 279 279 279 279 279 279 279 280
Wind_Speed
7 8 6 7 9 12 11 11 12 13 13 13 13 12 12 12 12 11 11 10 10 10 11 11 11 11 11 11 11 11 11 10 10 9 8 7 7 7 7 6 5 6 6 6 6 7 7 7 8 8 8 8 10 10 9 9 9 9 9 9 9 10 11 12 13 13 14 14 13 13 12 11 10 6 6 7 8 7 7 7 6 4 3 4 7
13 7 6 5 11 12 13 12 12 13 12 13 13 13 13 12 11 12 11 11 11 11 11 11 11 11 12 11 12 11 10 11 10 10 9 8 8 8 7 7 6 6 6 6 6 7 8 8 8 8 9 10 10 10 10 10 10 9 10 11 11 11 11 12 13 13 13 13 13 13 12 13 12 9 7 8 8 8 8 7 7 4 3 5 6
9 7 5 5 10 12 13 13 13 12 13 13 13 13 13 12 12 12 11 11 11 11 11 11 11 12 11 12 11 11 11 11 10 10 9 10 9 9 8 8 7 6 6 6 7 8 8 9 9 11 11 11 11 11 11 11 11 12 13 13 12 11 11 12 13 13 12 12 12 13 12 12 12 10 6 7 8 8 6 5 5 6 7 11 9
9 6 5 6 9 9 10 14 14 13 13 12 13 12 12 12 12 12 12 11 11 11 11 11 11 11 11 10 11 11 11 11 10 10 10 10 10 10 11 10 9 9 8 8 9 10 10 11 12 13 14 14 13 14 14 14 14 14 14 12 11 12 12 12 13 13 12 12 11 10 6 6 8 10 8 6 8 8 6 6 8 9 10 9 10
8 6 5 5 5 8 9 9 14 14 14 15 14 13 12 12 11 11 11 11 11 11 11 10 10 10 10 10 10 10 10 10 10 10 10 9 9 9 10 11 11 11 12 12 12 12 12 14 16 15 14 14 14 14 13 13 13 12 12 12 12 13 13 14 14 13 13 12 11 8 6 6 5 9 6 7 8 8 7 7 8 9 9 10 10
7 6 5 5 4 5 10 9 13 14 14 15 14 14 14 14 12 11 11 11 11 11 10 10 10 9 9 8 9 9 9 10 10 10 9 9 9 9 10 10 11 11 13 13 14 14 15 15 14 14 14 14 13 13 13 13 13 14 14 14 14 14 14 14 14 14 13 12 10 6 6 6 6 6 9 6 7 8 8 8 9 9 9 9 9
7 5 5 5 4 5 10 13 15 15 14 14 15 14 14 13 13 12 11 11 10 10 10 9 9 8 8 8 8 8 9 9 10 10 9 8 10 10 10 10 11 11 13 14 14 14 14 14 15 13 14 14 14 13 13 14 14 14 14 14 14 14 14 14 14 13 13 8 6 6 6 6 6 5 12 9 7 7 8 8 9 9 9 9 10
5 5 5 5 5 6 10 13 15 15 14 13 13 13 13 13 12 12 11 11 11 10 10 10 10 9 8 8 8 9 8 9 9 9 9 8 9 10 10 9 10 12 11 13 15 13 14 13 13 13 13 13 13 13 13 13 14 14 14 14 14 14 14 14 13 12 13 7 6 6 6 6 7 5 10 10 6 7 6 8 9 9 9 10 7
7 5 5 5 5 8 10 12 15 14 13 13 13 13 12 13 13 12 11 11 10 10 9 9 9 9 9 9 9 9 11 10 9 8 9 10 10 10 11 11 11 11 11 11 12 11 12 12 12 12 12 13 13 12 13 13 13 13 13 14 14 14 14 14 12 12 8 6 7 6 7 6 6 6 9 11 6 5 5 6 6 8 8 8 6
6 5 5 5 5 8 10 11 14 14 13 13 13 12 13 13 13 12 12 11 11 11 10 10 10 10 9 9 9 10 10 10 10 10 11 11 11 12 12 12 12 11 11 10 10 11 11 11 11 11 12 12 12 12 12 12 13 13 13 14 14 15 14 14 13 9 6 6 6 7 7 10 5 5 9 12 7 5 5 5 4 5 5 7 8
7 6 5 5 5 8 12 15 14 14 14 14 13 13 13 13 14 14 14 13 13 12 12 12 11 11 11 11 11 11 12 12 12 12 12 12 12 12 11 11 12 12 11 11 10 11 11 11 11 11 12 12 12 12 12 12 13 13 14 14 15 15 14 13 11 6 6 6 6 6 8 12 6 5 10 10 10 7 5 5 3 4 7 8 9
7 6 5 4 6 9 12 13 15 15 14 15 15 14 14 14 14 13 13 13 13 12 12 12 12 12 12 12 12 12 12 12 12 12 12 12 12 12 12 11 11 11 11 11 11 11 11 11 11 12 12 12 12 12 12 13 13 14 14 15 15 14 14 14 7 6 6 6 6 6 7 7 7 8 14 10 9 6 5 5 6 6 6 7 8
8 7 6 5 5 9 10 13 13 15 15 15 15 15 15 15 15 14 15 15 15 14 14 13 13 13 12 12 12 12 11 11 11 12 12 12 12 12 12 12 12 12 12 11 11 11 11 12 12 12 13 12 12 12 12 13 13 14 14 15 15 15 13 14 6 6 6 6 6 7 6 6 6 12 13 13 11 11 8 7 7 7 8 8 8
8 7 6 6 5 9 10 12 11 13 16 16 16 15 16 16 15 15 16 15 15 15 15 14 13 13 13 13 12 12 12 12 12 12 12 12 12 12 12 12 12 12 12 12 12 12 12 12 13 13 13 13 13 12 13 13 13 14 14 15 15 14 13 9 8 6 6 6 6 6 6 6 6 13 13 12 13 12 12 13 13 9 11 12 13
9 7 6 5 5 5 9 12 11 12 14 16 16 16 17 16 16 16 16 16 16 15 15 14 14 14 14 13 13 13 13 13 13 13 13 12 12 12 12 12 12 13 12 12 12 12 12 13 13 13 13 13 13 13 13 13 13 14 14 15 15 14 13 6 6 6 6 6 6 6 6 5 12 14 14 14 14 13 13 13 13 16 17 15 15
7 6 4 5 5 4 5 8 10 11 13 14 15 16 17 17 17 16 16 16 16 15 15 15 15 15 15 14 14 14 13 13 13 13 12 12 12 12 12 12 12 12 12 13 13 13 13 13 13 13 13 13 13 13 13 13 14 14 14 14 14 13 13 7 6 6 6 6 6 5 6 6 15 14 14 15 15 14 14 15 16 16 15 16 16
5 6 6 5 4 4 5 4 6 10 11 12 12 13 14 16 17 17 17 16 16 16 15 15 15 15 15 15 14 14 14 14 13 13 13 12 12 12 12 12 12 12 12 12 13 13 13 13 13 13 13 13 13 13 13 14 14 14 14 14 14 14 12 8 5 5 6 6 5 6 6 5 12 14 14 14 14 15 15 16 16 16 16 16 16
4 5 7 6 5 5 5 5 5 5 5 8 10 12 12 16 17 16 16 16 16 16 15 16 15 15 15 15 14 14 14 13 13 13 13 13 13 13 12 13 12 12 12 12 12 13 12 12 12 13 13 13 13 13 13 13 14 14 14 14 14 13 12 10 6 5 6 6 6 5 6 10 14 13 13 13 13 14 14 15 15 15 15 15 15
4 4 5 6 6 5 6 5 5 5 6 6 5 8 12 12 13 14 15 15 15 15 16 15 15 15 15 15 13 12 11 12 13 13 13 13 13 12 13 13 13 13 13 13 12 12 12 12 13 13 13 13 13 13 14 14 14 14 13 13 12 11 11 7 6 6 6 6 6 7 6 15 14 14 13 13 13 13 14 14 13 14 14 14 14
4 5 6 6 6 6 5 6 5 5 5 5 6 6 9 11 12 13 13 14 15 15 15 13 13 13 13 10 10 8 9 8 11 9 12 12 10 8 12 12 13 13 13 13 13 12 12 12 13 13 13 13 13 13 13 14 13 13 13 12 11 9 6 6 5 6 6 6 6 6 10 15 15 13 13 13 13 13 13 13 13 12 12 12 12
5 6 6 7 6 7 6 6 5 5 6 6 6 6 7 10 10 12 12 13 13 13 14 12 11 10 9 10 9 6 5 6 6 5 9 5 9 11 12 13 13 13 13 13 13 12 13 13 13 13 13 13 12 12 13 13 13 13 12 11 9 6 6 5 6 5 5 5 6 6 14 14 14 13 12 12 12 12 12 12 12 11 11 10 10
8 8 7 7 8 7 8 7 6 6 6 6 5 5 5 7 5 6 6 9 10 11 8 6 7 6 9 8 5 5 6 5 5 7 5 6 8 11 12 14 14 13 13 13 13 13 13 13 13 13 13 12 10 6 5 8 11 11 10 9 6 5 5 5 5 6 6 5 6 8 16 15 14 14 13 12 11 11 11 11 11 10 10 10 10
8 9 9 10 8 7 6 8 7 7 6 5 5 5 5 5 5 5 5 7 6 6 6 6 5 6 6 6 5 5 5 4 5 5 6 9 8 11 12 13 13 13 13 13 13 13 13 13 13 13 12 11 6 5 5 4 4 7 6 5 5 5 5 5 5 5 6 5 5 12 15 15 14 14 13 12 12 11 11 11 10 10 10 10 10
13 12 11 7 8 9 10 8 8 8 7 6 6 6 5 5 6 5 6 6 6 6 5 6 6 6 6 6 6 5 5 5 6 9 8 6 7 9 12 12 12 12 12 8 11 11 12 12 12 11 7 4 4 4 4 4 4 4 4 5 5 4 5 4 4 5 5 5 5 14 15 15 15 15 13 13 13 12 12 11 11 11 10 10 10
11 6 5 10 11 10 9 9 8 8 8 7 7 7 6 6 6 6 5 6 6 6 6 6 5 6 6 6 6 5 4 4 4 5 5 5 5 5 6 6 6 6 7 6 6 5 6 5 4 5 4 4 4 3 3 4 3 3 4 4 4 3 4 4 4 5 5 5 5 14 14 14 15 15 14 13 13 13 13 12 12 12 11 11 12
4 8 13 10 12 11 10 9 8 8 9 8 8 7 7 7 7 6 6 5 6 7 6 6 6 6 5 6 6 6 5 6 4 4 4 5 6 5 6 6 5 5 4 6 5 5 4 4 4 4 3 3 3 3 3 3 4 3 3 3 3 3 4 4 4 4 5 5 5 13 13 14 14 14 14 13 13 12 12 12 12 13 12 13 13
10 13 10 9 9 9 10 9 10 9 9 7 6 7 7 7 7 6 7 7 6 7 7 7 7 6 6 6 7 6 6 6 5 4 5 4 5 5 6 5 6 6 5 6 5 4 5 5 5 4 4 3 3 3 3 3 3 3 3 3 3 4 5 5 5 5 5 5 6 13 13 13 14 13 14 13 12 12 11 11 12 12 13 13 13
6 10 9 10 10 14 11 10 11 10 9 8 8 8 7 7 7 7 7 7 7 7 7 7 7 7 6 6 6 7 7 6 5 6 5 4 5 5 5 5 6 6 5 6 6 5 4 4 4 4 4 3 4 3 3 3 3 3 4 4 4 4 5 5 4 4 5 5 4 8 13 13 13 13 13 13 12 11 11 10 11 12 12 12 12
12 12 10 10 13 12 12 13 11 12 10 9 9 8 7 7 7 7 8 8 8 8 8 7 7 7 6 6 6 7 6 6 6 6 5 5 5 5 5 6 5 6 5 5 5 6 4 4 4 4 3 4 4 4 3 3 4 4 4 3 3 3 4 4 4 4 4 5 5 6 12 12 12 12 12 12 12 11 11 11 11 11 11 11 12
18 12 11 13 10 11 14 15 14 13 11 10 9 9 9 9 9 9 8 8 8 7 6 7 7 8 7 6 7 7 8 8 7 6 7 7 5 4 5 5 6 4 5 6 4 5 6 4 4 3 4 4 5 3 3 4 4 4 4 4 4 4 3 4 4 5 4 5 5 5 9 11 11 12 12 12 12 11 11 11 11 11 11 10 11
10 13 13 12 10 11 14 14 13 11 10 11 10 10 9 10 10 9 8 9 8 7 7 7 7 7 8 7 7 7 7 6 6 6 6 6 6 6 6 5 5 5 5 5 3 5 4 5 5 5 4 5 5 3 4 4 4 4 3 4 4 4 4 4 4 4 4 6 5 4 5 9 10 11 11 12 12 11 11 11 11 11 11 11 11
13 18 14 9 10 14 14 13 14 12 12 12 10 10 11 10 9 9 9 8 8 8 8 7 8 7 7 7 7 7 7 6 6 6 6 7 6 6 6 6 6 4 4 5 5 4 5 4 4 4 4 4 4 4 3 5 4 5 3 4 3 4 4 4 4 4 4 4 5 5 5 5 8 10 10 11 12 12 12 12 12 12 12 12 12
14 15 10 10 15 14 14 15 13 13 14 14 13 11 9 9 9 10 9 8 8 7 8 8 8 7 7 8 7 7 6 8 7 7 6 6 6 6 6 5 5 5 4 4 4 4 5 5 4 3 4 4 4 4 3 3 4 4 4 4 4 4 3 4 4 4 5 4 5 5 6 5 4 7 9 9 10 12 13 12 12 13 13 13 13
13 9 9 14 14 9 10 10 13 15 16 13 11 10 11 9 8 8 8 8 8 8 8 7 7 7 7 8 8 7 7 7 7 6 6 6 6 6 6 6 6 4 4 5 6 5 6 5 4 5 3 4 5 3 4 5 4 2 3 3 3 3 4 4 4 4 4 5 5 5 5 5 5 5 5 8 9 11 13 13 13 13 14 14 14
8 9 16 20 13 12 10 11 14 16 14 14 14 13 10 10 10 9 8 9 8 8 7 7 7 7 7 7 8 7 7 7 7 8 7 6 7 6 6 6 6 4 6 4 5 5 5 6 5 6 4 4 4 3 3 3 3 5 5 4 5 4 3 4 4 4 5 5 5 4 5 5 5 4 4 5 6 8 11 12 12 13 13 13 12
15 17 16 9 13 14 14 13 14 16 16 16 14 13 11 10 9 8 8 8 8 8 8 8 7 7 7 7 8 8 8 8 8 7 7 7 7 7 6 6 5 5 6 4 4 6 5 5 3 5 6 3 3 3 2 3 3 3 3 4 4 3 5 4 5 4 4 4 4 4 5 4 4 4 4 5 5 5 10 11 12 13 13 13 13
17 14 14 13 13 14 15 16 18 20 18 16 14 11 10 10 10 10 10 9 9 8 7 6 7 7 7 8 8 8 8 8 8 7 7 7 7 6 6 6 5 6 6 5 5 5 6 5 3 2 3 5 4 3 2 3 3 3 3 3 3 3 4 5 4 4 3 4 4 4 4 5 4 5 5 5 5 5 6 11 11 12 12 14 14
12 14 14 16 18 16 16 17 15 15 13 14 13 11 10 9 8 7 7 9 8 7 6 7 7 8 7 8 9 8 8 8 8 7 7 6 6 6 5 6 6 6 6 5 6 4 4 5 6 2 3 5 4 4 2 2 1 2 3 3 4 4 3 4 3 3 5 5 5 4 5 5 5 6 6 5 4 5 4 7 9 10 11 14 15
11 14 13 13 10 11 12 14 13 14 13 12 11 9 8 6 5 6 6 7 6 6 6 7 7 7 8 8 8 8 8 8 8 8 8 7 7 6 6 6 6 6 6 6 5 5 4 3 5 5 3 4 5 3 1 0 0 1 2 3 3 3 2 2 2 4 5 4 3 4 4 6 5 5 5 5 5 5 4 5 6 7 8 14 15
12 11 13 13 13 11 11 11 12 13 10 9 9 9 8 9 9 6 6 7 7 7 7 8 7 8 8 8 9 8 8 9 9 8 8 8 7 7 7 6 6 7 7 7 6 6 7 6 5 6 6 4 3 2 1 0 1 3 3 4 2 3 3 2 3 4 4 4 4 4 6 4 6 5 5 5 5 4 5 6 7 7 7 9 14
10 12 14 14 15 16 15 16 14 13 13 13 12 13 13 9 7 11 13 11 11 9 9 9 9 9 9 9 9 9 9 9 8 8 9 8 7 6 7 6 6 7 7 7 6 7 5 5 6 3 4 4 3 3 2 2 3 2 2 4 5 3 2 1 3 3 5 4 4 6 5 5 6 6 5 5 5 6 6 7 7 7 7 6 6
11 11 15 17 17 13 16 15 12 14 15 16 15 14 14 16 16 16 14 13 12 12 13 10 10 8 9 9 9 8 9 9 9 9 8 9 8 8 8 8 7 7 5 4 5 5 5 6 6 5 2 3 2 2 3 1 5 2 2 5 6 4 3 3 3 0 3 3 3 4 4 5 6 5 6 6 6 6 6 6 6 6 6 5 4
14 16 16 12 12 14 14 12 13 14 14 14 13 15 12 10 11 9 11 8 6 6 5 6 6 8 9 9 9 9 9 9 9 9 9 9 9 9 8 7 7 7 7 7 6 6 6 7 5 7 5 3 3 1 4 2 3 2 2 2 3 4 3 4 2 2 1 0 2 2 1 4 4 3 4 5 6 6 5 6 6 6 5 4 5
7 8 9 13 12 12 12 14 14 15 14 15 14 11 10 6 3 3 4 4 5 5 5 5 6 6 9 9 9 10 10 10 10 9 8 8 9 9 7 7 7 6 7 8 8 7 6 5 4 4 8 4 2 1 2 3 3 3 3 2 0 1 1 1 5 6 3 2 3 2 1 3 3 4 4 4 4 5 5 6 6 6 5 4 5
11 12 12 13 12 16 16 15 14 15 13 14 14 11 9 8 6 7 6 6 5 5 6 6 9 9 7 9 12 10 11 10 9 10 9 9 8 7 8 7 7 7 7 7 8 9 7 6 6 6 5 8 4 2 1 2 1 0 5 3 1 1 2 1 3 6 3 2 1 1 1 1 1 2 2 3 3 3 4 5 5 5 5 4 5
11 12 12 13 11 11 12 13 11 11 12 13 14 12 13 13 12 11 10 8 8 9 12 16 13 14 16 8 6 10 10 9 10 10 9 8 9 8 7 8 7 7 7 7 5 5 6 7 7 6 5 2 7 5 2 0 2 3 2 1 2 2 3 2 1 2 4 1 3 1 0 1 1 1 1 3 3 4 3 4 4 5 4 4 4
13 6 6 8 9 10 12 13 13 12 11 12 14 12 12 12 15 16 16 16 16 13 12 9 11 9 7 10 10 8 10 11 10 10 9 9 8 8 9 8 8 7 5 6 7 8 7 6 5 5 5 5 7 5 7 5 2 2 2 3 5 3 5 5 3 1 4 4 3 1 2 2 0 0 3 4 3 3 4 3 5 5 4 3 3
6 6 7 8 11 12 12 13 11 12 12 12 14 14 14 14 14 13 13 13 15 14 11 10 8 8 10 10 9 10 10 10 10 10 10 10 10 9 9 9 8 8 7 8 8 6 6 4 5 4 5 6 7 9 7 7 7 4 2 3 4 4 3 3 3 5 2 2 6 2 2 3 2 3 5 3 4 5 4 4 5 5 4 3 3
8 10 10 10 10 10 11 10 12 12 12 15 15 15 14 15 15 14 13 12 12 7 6 6 8 9 10 8 9 9 9 9 10 10 10 10 10 10 10 9 9 9 8 7 6 7 9 9 8 7 7 7 5 5 8 8 6 8 7 2 4 3 3 2 3 2 4 3 5 4 2 2 4 7 5 3 4 4 3 4 6 5 4 3 3
5 6 6 7 8 8 11 12 12 11 12 14 15 15 15 13 14 14 16 12 8 6 7 9 9 9 11 10 9 9 9 9 9 9 10 10 10 10 10 11 10 9 8 9 8 8 8 8 8 8 7 7 5 7 8 7 6 6 7 8 6 4 2 1 1 3 1 3 5 4 2 2 6 3 2 7 4 4 5 5 6 5 4 4 4
4 5 6 7 8 10 11 13 13 11 12 15 15 17 15 14 15 15 16 14 12 10 9 9 9 9 12 11 11 10 9 10 9 9 10 10 10 10 10 10 9 9 9 9 10 10 9 9 8 7 8 9 7 7 5 5 6 7 6 8 9 10 9 6 7 5 4 3 2 5 3 4 3 10 2 3 6 9 6 4 5 5 3 4 3
Wind_Direction
212 177 192 194 168 150 149 159 160 163 164 165 169 167 163 161 160 156 154 153 151 149 148 147 145 142 140 139 136 132 130 129 127 122 113 109 100 94 93 93 93 94 98 94 97 93 92 93 93 89 88 81 76 72 68 67 67 65 62 56 51 42 27 12 14 8 4 3 7 14 17 22 21 16 32 62 65 60 53 40 29 21 29 36 33
171 184 176 196 165 155 153 151 155 160 163 163 165 164 160 158 159 155 153 154 153 150 150 146 142 142 140 138 135 130 128 124 118 114 108 104 98 97 98 94 91 92 90 88 87 89 86 85 84 81 78 70 68 67 64 57 56 59 62 56 50 44 30 12 11 11 9 7 7 9 11 14 16 22 44 66 67 65 56 41 31 21 336 31 36
143 158 170 188 161 160 154 153 149 153 156 155 156 156 151 150 156 152 153 156 153 151 149 144 142 140 139 135 132 129 121 115 110 105 103 92 86 86 82 86 81 83 87 88 86 86 89 88 82 72 66 62 64 58 57 57 52 52 54 50 44 38 30 19 9 13 12 12 10 9 10 8 4 13 38 71 82 74 63 56 39 33 24 21 24
142 160 158 165 159 159 165 158 154 152 146 145 145 144 145 150 154 152 152 154 150 149 145 142 139 132 127 128 120 114 109 100 93 90 87 87 90 84 73 65 67 69 73 78 80 78 78 75 68 67 59 56 56 54 50 48 45 43 45 45 40 34 29 23 14 11 14 14 12 14 14 3 355 351 16 61 86 75 60 55 50 45 40 29 23
146 156 153 143 155 164 165 166 159 158 151 147 144 144 145 148 150 148 150 148 146 142 136 131 125 124 122 121 114 106 99 91 88 86 89 89 90 85 79 70 67 71 67 73 75 76 74 71 66 62 59 54 50 49 47 45 45 44 44 41 37 34 30 23 18 12 12 13 14 15 5 2 353 338 11 47 56 60 49 48 54 48 40 30 27
151 156 150 142 146 169 169 167 169 162 157 154 151 150 149 149 148 148 145 142 136 134 132 128 124 120 118 117 110 105 105 101 99 94 92 100 94 88 78 72 71 76 78 74 69 69 65 63 62 59 55 53 51 48 45 41 40 38 37 35 33 29 26 22 16 14 11 11 14 12 4 356 354 345 10 54 68 59 55 49 52 51 40 33 28
150 153 150 151 155 169 168 174 172 172 174 169 163 165 161 161 157 157 158 150 144 141 136 133 127 126 129 127 123 121 115 105 101 97 103 101 95 89 83 82 78 80 76 70 65 61 64 63 60 56 55 50 48 45 43 40 37 35 32 31 29 27 24 20 15 11 13 14 10 6 359 353 355 357 352 33 51 46 51 48 44 47 42 29 22
148 154 158 157 160 178 172 178 175 175 174 170 167 167 169 165 166 164 166 163 163 154 150 149 140 144 137 146 142 131 124 117 109 106 111 112 103 96 97 92 87 80 77 73 70 65 64 62 61 58 55 53 48 45 44 41 36 34 31 28 28 26 23 20 16 11 13 14 5 4 358 354 354 353 345 13 38 26 38 49 43 38 32 28 16
158 164 158 158 170 179 177 175 176 176 172 168 169 169 166 171 175 171 163 172 171 163 170 171 165 162 155 155 144 139 124 123 125 123 118 116 113 107 90 82 80 83 78 75 74 75 72 70 67 63 60 57 53 50 47 41 38 35 32 31 28 25 22 20 19 17 14 10 3 360 357 356 353 347 342 1 50 51 31 52 45 34 25 17 10
161 160 162 159 172 183 180 175 176 177 173 169 168 168 171 171 172 174 171 173 173 163 166 165 169 164 159 150 146 147 143 137 133 125 123 116 104 99 93 87 84 86 88 89 88 80 77 75 72 68 65 62 59 56 52 47 41 37 34 32 30 27 25 24 22 22 19 10 4 4 355 0 355 349 337 354 20 41 25 38 28 37 26 24 15
161 165 162 162 175 182 179 177 175 177 175 170 169 170 174 172 174 172 173 172 171 169 166 164 158 153 148 146 142 140 134 130 126 121 117 111 105 101 99 96 92 91 95 95 90 86 83 80 77 75 73 71 66 61 56 50 46 41 38 37 35 33 32 30 27 21 19 17 11 8 355 2 358 336 340 354 7 40 24 2 17 43 43 32 24
164 163 164 169 177 177 181 176 175 176 176 173 172 173 173 173 174 169 168 168 166 164 162 161 158 153 147 143 138 134 131 127 123 119 115 113 110 106 104 102 99 95 92 90 89 89 88 85 83 82 79 76 72 67 62 57 50 46 45 42 38 35 31 32 35 24 21 18 19 8 360 359 353 335 359 357 359 39 49 18 20 31 36 31 24
166 166 168 169 173 175 181 174 177 179 177 173 176 174 173 175 172 169 169 169 168 166 163 160 157 153 147 144 140 137 133 128 123 120 118 115 114 111 108 105 101 98 94 92 91 92 91 90 88 86 83 80 76 73 68 62 58 53 48 44 40 36 31 30 30 27 25 18 18 11 4 355 343 351 7 10 11 22 16 18 11 17 19 21 18
162 168 170 170 169 179 186 174 184 180 178 177 179 178 176 175 174 172 171 170 168 166 162 156 154 152 148 144 141 138 135 132 129 125 122 118 115 113 109 106 103 100 97 94 91 89 88 88 87 85 81 78 75 72 68 64 61 57 53 48 44 40 34 28 27 25 22 21 13 13 5 353 337 4 9 13 32 35 25 25 15 15 26 14 10
161 168 170 170 171 180 189 175 183 181 178 179 179 178 178 177 175 174 172 169 168 165 159 156 154 151 148 144 140 137 135 132 129 125 123 120 116 113 109 107 105 103 100 97 94 91 88 84 81 79 77 75 73 70 67 64 61 57 54 51 47 43 41 30 27 22 19 17 9 8 3 349 355 12 13 15 21 25 22 21 19 21 26 21 20
157 161 164 170 173 177 176 175 178 178 182 181 179 180 180 178 176 174 172 170 167 163 160 158 156 152 150 147 143 139 136 131 128 125 122 120 117 113 110 107 107 105 103 102 99 96 92 88 85 81 77 75 72 68 65 62 60 57 54 52 49 47 46 47 32 24 17 15 7 6 354 344 360 11 16 16 19 22 20 19 20 19 16 13 12
157 157 161 174 173 176 168 171 179 182 185 185 181 180 180 178 176 174 171 168 166 164 161 159 156 153 151 148 144 141 137 133 129 126 122 120 118 114 110 108 107 103 100 98 95 93 91 89 86 84 81 77 73 69 64 60 55 50 47 44 43 42 43 46 42 31 16 16 13 360 348 338 1 10 15 17 18 19 18 19 20 16 16 14 9
165 167 173 173 175 176 172 174 181 183 181 180 177 174 174 176 174 170 168 167 166 164 161 159 156 153 149 147 143 141 138 134 128 125 123 120 117 115 111 110 107 104 101 97 93 89 87 85 82 80 78 74 72 70 66 62 57 52 46 41 37 35 34 37 39 27 19 15 10 355 343 358 5 9 13 17 20 21 19 19 18 14 13 13 9
177 188 180 173 184 177 179 177 180 175 175 172 173 176 172 173 170 168 168 167 166 163 160 157 154 152 147 143 142 138 135 130 126 121 117 118 120 116 114 112 110 106 103 100 94 90 87 83 79 76 72 70 68 66 64 61 58 54 49 44 38 32 31 31 30 25 21 11 8 358 339 4 6 8 11 15 19 20 20 19 16 13 10 9 8
192 198 193 196 181 180 182 181 177 176 172 170 172 171 172 173 171 169 169 168 165 162 159 155 151 144 139 124 114 111 114 117 118 116 119 116 105 104 112 112 111 109 105 101 96 91 87 84 81 77 72 68 64 61 59 57 55 50 47 43 38 33 31 26 25 26 22 11 11 345 356 7 7 6 9 11 15 17 18 17 14 12 12 10 7
212 212 201 196 191 186 186 180 184 176 172 170 171 170 173 170 171 168 167 167 163 160 156 145 138 131 122 122 116 114 117 116 112 114 109 111 113 109 112 113 109 107 103 100 97 93 89 85 82 79 74 67 59 52 50 51 49 45 43 42 38 34 26 25 22 21 23 9 8 339 6 5 7 5 6 9 12 14 14 12 12 11 10 10 9
200 208 215 201 192 197 188 183 180 184 174 173 172 169 170 163 166 169 164 165 160 153 142 137 132 130 132 128 127 130 130 129 128 123 122 116 116 116 115 113 111 107 106 102 99 92 88 85 82 77 73 66 62 53 40 40 43 44 41 40 37 35 28 25 23 18 17 4 6 350 6 5 6 4 4 4 6 11 9 9 9 9 8 8 7
211 211 212 203 199 188 187 189 189 179 176 175 172 171 164 155 164 165 163 156 152 138 141 137 134 139 138 137 137 136 138 136 133 134 131 124 116 114 113 109 105 102 101 97 92 87 84 80 76 73 67 60 54 51 50 46 38 38 38 37 39 33 31 31 27 22 15 1 359 356 4 3 4 3 2 1 2 4 5 7 8 9 9 8 7
211 204 202 193 193 194 194 190 185 180 176 178 172 172 164 160 163 167 164 155 146 148 146 142 143 145 147 145 142 144 139 141 140 129 119 110 107 101 102 99 95 89 84 75 76 80 79 78 79 73 65 65 61 52 50 44 45 39 38 37 34 30 33 32 28 21 15 5 352 359 2 2 2 2 2 1 359 0 2 5 7 8 10 12 13
205 183 185 201 199 197 188 192 185 182 179 178 175 178 168 160 169 171 165 163 155 153 153 150 151 149 150 147 147 141 136 127 120 114 115 118 111 105 96 96 97 94 96 94 89 83 81 82 74 78 79 87 83 68 72 62 49 47 46 36 38 35 34 30 25 21 13 6 355 2 2 1 1 2 1 360 0 360 0 4 6 7 11 13 14
172 189 208 200 201 198 193 187 183 187 188 181 181 173 159 173 176 176 168 176 166 164 160 160 157 157 155 151 141 132 133 129 130 130 129 126 119 116 112 112 110 116 113 113 111 115 108 115 116 110 110 110 103 103 82 81 66 52 47 37 35 32 31 29 27 22 13 4 355 1 2 1 2 2 2 1 1 1 1 4 5 8 10 10 12
198 213 200 205 196 199 196 184 191 186 193 182 174 172 181 178 172 173 170 182 177 167 170 167 168 162 161 157 145 145 141 142 140 143 142 137 133 135 135 133 131 132 139 127 129 133 133 131 127 124 129 114 101 94 86 79 74 65 47 40 28 26 23 20 19 19 10 3 354 359 0 1 2 2 3 2 1 3 4 8 6 9 10 10 11
210 219 205 201 195 200 193 188 193 188 190 183 178 182 179 175 179 176 184 181 173 180 173 171 164 168 166 162 146 148 153 153 159 156 160 146 151 150 143 137 135 139 143 135 131 135 133 131 126 120 116 108 99 85 78 68 61 57 52 34 24 21 18 15 12 11 7 3 355 351 359 359 0 2 3 2 2 5 7 11 10 13 13 12 12
219 214 207 202 205 195 188 195 192 192 187 180 188 183 178 179 179 182 188 184 184 181 174 165 168 170 169 162 151 150 154 161 167 166 154 158 155 154 151 146 139 144 137 135 135 136 128 129 118 114 106 96 84 69 65 57 49 46 46 33 26 18 15 13 10 3 3 360 352 346 355 357 359 1 3 2 3 7 8 11 12 16 16 16 14
217 208 204 211 200 189 194 197 194 190 184 179 191 183 183 183 188 190 187 184 188 177 168 173 171 166 173 170 164 160 168 172 169 165 162 164 163 156 147 152 148 152 139 138 152 134 135 122 110 98 89 77 65 52 59 54 39 34 30 24 17 11 7 10 4 3 355 353 349 344 349 354 356 358 0 1 4 10 10 13 15 16 17 17 16
200 213 210 208 195 187 200 197 194 188 180 190 188 191 181 191 189 187 185 189 180 171 176 173 170 176 173 168 167 168 165 168 167 168 166 162 162 158 158 157 151 164 152 144 148 138 130 119 117 107 92 78 67 45 57 54 39 29 17 19 3 2 7 7 2 0 359 351 346 343 340 350 353 355 357 357 3 9 12 14 17 15 17 16 14
199 216 210 191 187 200 197 194 193 186 184 192 190 190 191 191 187 185 190 186 173 178 177 175 177 177 170 169 169 171 166 168 168 171 170 166 166 163 162 159 168 167 153 145 136 129 117 111 100 90 84 80 64 48 41 54 37 21 5 11 360 4 5 3 1 357 353 353 346 341 340 339 346 352 355 353 359 1 10 15 12 14 14 13 14
216 215 194 184 201 197 194 196 188 187 190 192 192 193 189 187 185 191 187 180 179 176 180 182 176 174 171 171 172 172 172 168 174 174 173 171 164 160 164 171 169 162 152 144 129 120 106 99 85 86 72 65 64 41 33 49 39 5 1 358 359 4 1 2 1 359 356 349 349 340 336 338 340 345 347 350 353 358 4 10 11 13 15 16 15
213 198 179 201 201 193 193 186 189 192 195 193 189 189 191 189 188 187 184 178 182 182 187 181 173 170 172 173 171 176 173 169 166 174 170 168 169 169 166 170 172 164 147 143 136 135 123 112 115 97 81 76 74 45 40 31 12 344 359 343 357 356 357 2 3 357 351 353 346 345 338 336 341 339 337 342 352 358 3 8 10 14 15 15 10
197 191 198 207 186 190 184 190 191 195 192 193 191 193 187 186 185 185 186 183 182 187 184 176 174 174 169 174 175 177 175 172 172 168 173 171 170 171 176 177 166 158 149 153 137 125 123 127 127 105 92 78 76 62 58 47 12 359 345 345 344 348 4 5 358 5 2 349 351 346 341 340 337 339 335 347 350 354 1 9 16 17 17 17 12
203 204 207 185 190 192 189 192 188 193 194 194 192 189 186 185 184 184 182 183 182 188 184 181 176 168 172 174 179 178 175 175 171 168 170 177 176 176 179 168 166 152 148 143 131 134 130 121 126 132 111 98 97 55 39 37 9 351 332 335 340 353 2 1 4 3 357 357 357 347 345 338 334 337 356 356 355 353 357 11 18 21 19 14 9
205 202 197 191 196 192 190 191 190 194 193 192 188 186 180 183 184 185 184 181 186 188 181 172 170 173 176 177 180 180 177 175 172 172 169 175 177 178 176 169 161 153 150 150 141 144 137 128 107 114 122 126 104 92 36 23 1 337 321 333 357 4 6 4 358 353 359 14 355 349 346 348 350 2 3 360 359 356 356 9 17 17 14 8 4
206 203 199 193 196 191 192 194 195 192 189 187 186 182 181 178 181 179 179 185 188 184 176 169 180 181 176 183 179 179 176 174 172 172 172 176 175 174 170 168 162 153 149 149 150 139 135 131 120 88 111 110 97 83 41 0 342 333 335 340 3 20 5 8 357 9 19 8 355 355 351 347 2 4 2 4 2 358 3 2 10 13 11 5 5
203 201 197 199 191 190 192 195 188 186 185 181 176 171 164 165 156 161 174 183 184 182 172 182 185 179 187 180 175 178 174 174 172 171 170 173 173 174 173 174 163 157 151 146 144 142 137 133 129 115 86 95 115 123 123 241 294 331 348 342 11 8 17 18 49 19 20 9 356 354 360 7 9 6 4 6 358 3 360 0 10 14 6 2 4
201 193 194 192 192 188 190 191 189 181 173 167 164 167 165 171 172 163 179 194 187 182 188 191 179 189 186 176 178 177 175 174 174 174 172 173 174 177 176 174 170 160 158 156 161 160 155 136 139 129 119 92 67 94 58 93 114 68 22 352 33 24 12 74 72 52 35 34 23 13 11 4 25 5 9 355 357 1 1 9 17 9 6 357 360
198 190 192 194 192 190 181 190 185 174 172 172 176 173 174 173 182 191 195 189 190 185 188 191 189 190 180 180 179 180 175 173 175 172 178 174 177 173 170 179 173 169 169 173 164 158 158 150 138 123 123 94 43 16 33 70 51 18 21 16 354 20 32 81 110 65 44 32 30 25 354 24 23 16 355 359 12 7 10 13 8 3 358 355 353
209 193 194 196 195 184 186 186 172 180 182 182 180 180 184 185 182 190 190 188 182 184 193 190 192 183 181 181 182 178 176 178 177 178 175 176 173 177 181 180 175 173 168 151 155 158 150 145 145 83 37 121 86 355 335 92 28 91 21 335 346 359 28 71 115 33 35 33 48 32 343 34 26 5 1 14 4 6 5 3 359 352 343 346 350
198 195 199 189 186 187 190 178 181 180 185 181 178 188 188 188 188 187 188 181 191 187 175 175 165 178 186 184 180 179 178 181 179 181 178 180 181 177 185 175 175 163 154 162 165 161 163 160 165 136 107 55 97 17 6 51 135 124 142 84 1 10 333 8 337 313 31 68 80 41 349 45 27 1 4 13 1 354 352 352 345 339 332 338 348
199 199 188 190 188 190 185 182 184 184 182 186 186 185 177 165 139 107 129 123 159 142 134 142 169 169 192 186 187 185 183 182 182 180 179 183 180 183 171 175 176 176 170 164 169 169 163 163 148 142 132 109 75 17 6 10 116 116 20 62 176 95 326 347 335 303 23 109 89 84 49 50 18 12 24 15 340 346 342 342 337 329 325 332 347
204 198 190 189 189 191 186 183 181 184 184 181 178 163 141 125 110 89 92 86 81 124 137 175 189 193 182 191 197 183 184 184 178 183 182 182 181 176 175 177 174 180 175 172 176 178 174 168 162 150 153 141 148 135 340 15 357 265 146 104 43 19 219 257 352 290 344 352 21 106 69 45 29 42 39 332 333 332 327 331 325 321 316 335 342
214 207 194 193 183 182 178 179 178 180 181 179 172 163 169 162 156 154 161 171 175 175 189 195 189 192 199 177 171 188 183 184 183 182 185 176 178 178 174 171 179 180 184 180 165 153 167 168 184 165 142 139 135 128 109 331 1 4 59 127 165 174 172 220 103 277 327 294 291 270 106 264 89 60 358 307 311 306 315 313 312 301 306 322 335
222 187 186 186 182 178 178 177 178 179 177 174 171 168 170 176 180 182 181 182 189 204 202 187 186 190 166 180 186 180 188 183 186 185 183 179 175 175 176 179 179 179 172 161 175 183 175 170 159 156 162 139 128 128 155 176 53 10 31 60 78 87 125 124 199 47 330 317 4 316 305 308 186 358 336 290 280 294 292 296 295 294 300 308 329
190 170 183 179 179 177 174 178 176 177 176 172 175 178 177 181 185 190 191 196 199 200 185 185 172 168 181 182 177 188 187 190 184 187 183 180 177 175 176 176 176 180 174 180 180 172 152 149 157 159 147 160 155 144 161 172 156 184 131 92 87 82 87 90 134 161 171 249 308 314 303 318 286 312 308 265 292 295 291 290 291 295 288 291 300
176 186 186 182 176 172 172 171 176 176 176 176 178 184 184 183 187 188 195 206 202 186 161 154 167 172 181 179 184 185 187 192 191 186 186 183 180 180 176 176 177 179 179 175 175 169 171 164 164 165 169 168 161 150 148 178 170 162 148 101 102 98 89 89 139 129 159 173 265 212 270 329 296 284 251 232 289 267 248 263 276 278 274 285 288
185 173 168 162 169 165 170 173 180 178 176 180 182 185 187 183 189 195 197 196 183 156 160 171 172 173 186 185 185 182 188 189 194 191 188 188 184 180 180 181 180 176 178 180 170 171 174 175 176 171 166 164 163 158 169 171 177 167 168 151 138 119 85 79 142 148 201 191 235 237 202 250 311 277 237 280 270 275 272 281 286 280 279 276 277
163 162 165 168 166 169 172 179 184 178 179 183 182 187 189 189 195 195 197 191 184 169 167 180 175 176 191 188 186 188 183 193 187 195 192 188 188 184 184 184 179 179 179 175 181 178 177 172 170 164 170 168 167 161 152 164 159 165 166 168 168 170 171 170 185 182 160 178 261 249 178 172 226 295 251 164 308 294 278 271 270 273 265 272 274